This is the latest recevied weather packets stored in our database for station/object SP9KB-14. If no packets are shown the sender has not sent any weather packets the latest 10 day(s).
| Time | Temp. | Humidity | Pressure | Rain* | Wind** | Luminosity | Snow |
|---|---|---|---|---|---|---|---|
| 1777949129 | 11.11° C | 67% | 1035 hPa | 0 mm | - | - | - |
| 1777948829 | 11.11° C | 67% | 1035.1 hPa | 0 mm | - | - | - |
| 1777948528 | 11.67° C | 67% | 1035.2 hPa | 0 mm | - | - | - |
| 1777948227 | 11.67° C | 66% | 1035.2 hPa | 0 mm | - | - | - |
| 1777947927 | 11.67° C | 66% | 1035.2 hPa | 0 mm | - | - | - |
| 1777947626 | 11.67° C | 66% | 1035.2 hPa | 0 mm | - | - | - |
| 1777947326 | 11.67° C | 66% | 1035.3 hPa | 0 mm | - | - | - |
| 1777947025 | 11.67° C | 65% | 1035.2 hPa | 0 mm | - | - | - |
| 1777946725 | 12.22° C | 65% | 1035.2 hPa | 0 mm | - | - | - |
| 1777946424 | 12.22° C | 64% | 1035.2 hPa | 0 mm | - | - | - |
| 1777946124 | 12.22° C | 63% | 1035.3 hPa | 0 mm | - | - | - |
| 1777945823 | 12.78° C | 62% | 1035.4 hPa | 0 mm | - | - | - |
| 1777945523 | 12.78° C | 61% | 1035.5 hPa | 0 mm | - | - | - |
| 1777945222 | 12.78° C | 61% | 1035.7 hPa | 0 mm | - | - | - |
| 1777944922 | 12.78° C | 62% | 1035.4 hPa | 0 mm | - | - | - |
| 1777944621 | 12.78° C | 62% | 1035.4 hPa | 0 mm | - | - | - |
| 1777944320 | 12.78° C | 62% | 1035.4 hPa | 0 mm | - | - | - |
| 1777944020 | 12.22° C | 65% | 1035.3 hPa | 0 mm | - | - | - |
| 1777943720 | 12.22° C | 68% | 1035.6 hPa | 0 mm | - | - | - |
| 1777943419 | 12.78° C | 69% | 1035.3 hPa | 0 mm | - | - | - |
| 1777943119 | 13.33° C | 66% | 1035.5 hPa | 0 mm | - | - | - |
| 1777942818 | 13.33° C | 61% | 1035.5 hPa | 0 mm | - | - | - |
| 1777942518 | 13.33° C | 58% | 1035.5 hPa | 0 mm | - | - | - |
| 1777942217 | 13.33° C | 57% | 1035.5 hPa | 0 mm | - | - | - |
| 1777941917 | 13.89° C | 56% | 1035.5 hPa | 0 mm | - | - | - |
* Rain latest hour (hover to see other rain measurements)
** Current wind speed in m/s (hover to see current wind gust speed)